Location: Columbia
(38.9520°N, 92.3340°W)
Time: 12:55:36
(UTC-06:00)

ISS - Visible Passes

Search period start: 14 December 2018 00:00
Search period end: 24 December 2018 00:00
Orbit: 401 x 408 km, 51.6° (Epoch: 15 December)

Date Brightness Start Highest point End Pass type
(mag) Time Alt. Az. Time Alt. Az. Time Alt. Az.
14 Dec -1.2 18:01:11 10° W 18:03:46 22° SW 18:06:22 10° S visible
22 Dec -0.6 06:11:53 10° S 06:14:04 16° SE 06:16:13 10° E visible
23 Dec -3.8 06:54:42 10° SW 06:58:00 87° SE 07:01:16 10° NE visible
